[Iaude] MPEC R110: 2023 OE24 [a=1.72,e=0.27,i=8.0,H=21.0]

mpec at marsden.cfa.harvard.edu mpec at marsden.cfa.harvard.edu
Sun Sep 10 18:13:55 EDT 2023


M.P.E.C. 2023-R110                           Issued 2023 September 10, 22:12 UT

     The Minor Planet Electronic Circulars contain information on unusual
         minor planets, routine data on comets and natural satellites,
         and occasional editorial announcements.  They are published
    on behalf of Division F of the International Astronomical Union by the
          Minor Planet Center, Smithsonian Astrophysical Observatory,
                          Cambridge, MA 02138, U.S.A.
			  
             Prepared using the Tamkin Foundation Computer Network

                              MPC at CFA.HARVARD.EDU
            URL https://www.minorplanetcenter.net/    ISSN 1523-6714

                                   2023 OE24                                    


Observations:
     K23O24E* C2023 07 30.57600001 03 41.317-16 16 25.29         21.92wXER110F51
     K23O24E  C2023 07 30.58643801 03 41.905-16 16 23.51         21.79wXER110F51
     K23O24E  C2023 07 30.59683201 03 42.495-16 16 21.94         21.76wXER110F51
     K23O24E  C2023 07 30.60722101 03 43.093-16 16 20.24         21.87wXER110F51
     K23O24E  C2023 08 20.54021101 12 12.650-15 53 03.02         21.58GVER110F51
     K23O24E  C2023 08 26.48482601 09 24.594-15 53 13.51         21.15wXER110F52
     K23O24E  C2023 08 26.49502301 09 24.120-15 53 13.64         20.99wXER110F52
     K23O24E  C2023 08 26.50521301 09 23.641-15 53 13.66         21.01wXER110F52
     K23O24E  C2023 08 26.51541701 09 23.152-15 53 13.82         21.15wXER110F52
     K23O24E  C2023 08 27.50936901 08 41.809-15 53 11.19         21.85GVER110F51
     K23O24E  C2023 08 27.51213201 08 41.658-15 53 11.04         20.53GVER110F51
     K23O24E  C2023 09 05.60880600 59 43.688-15 48 31.07         21.07GVER110F51
     K23O24E  C2023 09 09.53653400 54 35.630-15 42 33.27         21.19GVER110F51
     K23O24E  C2023 09 09.53923000 54 35.399-15 42 32.73         20.29GVER110F51
     K23O24E  C2023 09 10.41569800 53 22.415-15 40 44.91         21.10wXER110F52
     K23O24E  C2023 09 10.42715400 53 21.369-15 40 43.68         21.36wXER110F52
     K23O24E  C2023 09 10.43862000 53 20.290-15 40 42.09         21.20wXER110F52
     K23O24E  C2023 09 10.45011100 53 19.228-15 40 40.67         20.97wXER110F52
     K23O24E  C2023 09 10.53629800 53 11.220-15 40 29.74         20.96GVER110F51
     K23O24E  C2023 09 10.53693800 53 11.168-15 40 29.65         20.90GVER110F51

Observer details:
F51 Pan-STARRS 1, Haleakala.  Observers J. Bulger, T. Lowe, P. Minguez, A.
    Schultz, I. Smith, K. Chambers.  Measurers K. Chambers, T. de Boer, J.
    Bulger, J. Fairlamb, H. Gao, M. Huber, C.-C. Lin, T. Lowe, E. Magnier, P.
    Minguez, Y. Ramanjooloo, A. Schultz, I. Smith, R. Wainscoat, R. Weryk, S.
    Chastel.  1.8-m Ritchey-Chretien + CCD.
F52 Pan-STARRS 2, Haleakala.  Observers J. Bulger, T. Lowe, A. Schultz, I.
    Smith, P. Minguez.  Measurers K. Chambers, S. Chastel, T. de Boer, J.
    Fairlamb, H. Gao, M. Huber, C.-C. Lin, E. Magnier, Y. Ramanjooloo, R.
    Wainscoat, R. Weryk, J. Bulger, T. Lowe, P. Minguez, A. Schultz, I. Smith.
    1.8-m Ritchey-Chretien + CCD.

Orbital elements:
2023 OE24                                                Earth MOID = 0.2696 AU
Epoch 2023 Sept. 13.0 TT = JDT 2460200.5                Veres                   
M  41.92819              (2000.0)            P               Q                  
n   0.43824520     Peri.  241.52320     +0.26344170     +0.95980228             
a   1.7165559      Node    44.10495     -0.82927819     +0.27660895             
e   0.2702126      Incl.    7.99828     -0.49284497     +0.04761371             
P   2.25           H   21.04          G   0.15           U   7                  
Residuals in seconds of arc
230730 F51  0.1-  0.1-    230826 F52  0.1+  0.1+    230910 F52  0.0   0.1-
230730 F51  0.1-  0.1+    230826 F52  0.0   0.0     230910 F52  0.2+  0.2-
230730 F51  0.0   0.0     230827 F51  0.1+  0.0     230910 F52  0.1-  0.1+
230730 F51  0.2+  0.1+    230827 F51  0.1-  0.1+    230910 F52  0.1-  0.1+
230820 F51  0.0   0.1-    230905 F51  0.0   0.1-    230910 F51  0.1-  0.0
230826 F52  0.0   0.0     230909 F51  0.0   0.0     230910 F51  0.0   0.0
230826 F52  0.0   0.0     230909 F51  0.2+  0.2+

Ephemeris:
2023 OE24                a,e,i = 1.72, 0.27, 8                   q = 1.2527
Date    TT    R. A. (2000) Decl.     Delta      r    Elong.  Phase     V
2023 08 11    01 11 50.1 -15 56 15   0.4789  1.3448   124.6    38.3    21.6
...
2023 08 26    01 09 42.9 -15 53 03   0.4629  1.3885   137.7    29.4    21.4
...
2023 09 03    01 02 45.8 -15 50 44   0.4614  1.4140   145.6    23.8    21.2
...
2023 09 09    00 55 20.3 -15 43 23   0.4649  1.4339   151.7    19.5    21.1
2023 09 10    00 53 57.1 -15 41 27   0.4660  1.4372   152.7    18.8    21.1
2023 09 11    00 52 31.7 -15 39 17   0.4671  1.4406   153.7    18.1    21.1
...
2023 09 17    00 43 24.9 -15 20 37   0.4774  1.4613   159.1    14.2    21.1
...
2023 09 25    00 30 40.0 -14 38 34   0.5001  1.4895   163.5    11.0    21.1
...
2023 10 10    00 09 58.8 -12 28 37   0.5728  1.5438   157.5    14.3    21.6

M. P. C. Staff               (C) Copyright 2023 MPC           M.P.E.C. 2023-R110





More information about the Iaude mailing list